EW4498 Weather Reports


Display with metric or nautical units.
time (UTC)temp
F
wind
direction
speed
MPH
gust
MPH
rain 1hr
in
rain 24hr
in
rain mn
in
humidity
%
barometer
mb
20260507193046 48 339 0.0 0.0 0.00 0.00 0.00 69 1018.6
20260507191544 49 339 0.0 0.0 0.00 0.00 0.00 65 1018.4
20260507190043 52 339 0.0 0.0 0.00 0.00 0.00 62 1018.3
20260507184541 53 339 0.0 2.0 0.00 0.00 0.00 57 1018.2
20260507183047 54 339 0.0 3.0 0.00 0.00 0.00 53 1018.1
20260507181542 55 324 0.0 4.0 0.00 0.00 0.00 51 1018.1
20260507180050 56 360 0.0 5.0 0.00 0.00 0.00 49 1018.0
20260507174536 56 347 1.0 5.0 0.00 0.00 0.00 46 1017.9
20260507173040 57 40 2.0 5.0 0.00 0.00 0.00 43 1017.8
20260507171537 57 340 4.0 9.0 0.00 0.00 0.00 43 1017.6
20260507170033 57 45 2.0 8.0 0.00 0.00 0.00 43 1017.5
20260507164538 58 44 3.0 9.0 0.00 0.00 0.00 42 1017.4
20260507163037 59 23 4.0 9.0 0.00 0.00 0.00 40 1017.4
20260507161539 60 13 3.0 9.0 0.00 0.00 0.00 38 1017.3
20260507160042 60 350 1.0 13.0 0.00 0.00 0.00 37 1017.3
20260507154531 60 331 5.0 10.0 0.00 0.00 0.00 37 1017.4
20260507153030 60 355 4.0 10.0 0.00 0.00 0.00 37 1017.2
20260507151525 61 51 4.0 12.0 0.00 0.00 0.00 40 1017.1
20260507150028 60 331 3.0 9.0 0.00 0.00 0.00 41 1017.0
20260507144529 60 30 4.0 10.0 0.00 0.00 0.00 41 1016.9
20260507143022 59 65 4.0 10.0 0.00 0.00 0.00 43 1016.9
20260507141522 58 360 2.0 7.0 0.00 0.00 0.00 45 1016.9
20260507140021 59 32 4.0 12.0 0.00 0.00 0.00 46 1017.0
20260507134520 59 34 4.0 9.0 0.00 0.00 0.00 45 1016.9
20260507133020 60 30 4.0 13.0 0.00 0.00 0.00 47 1016.8
20260507131518 60 66 5.0 11.0 0.00 0.00 0.00 53 1016.9
20260507130025 58 20 4.0 10.0 0.00 0.00 0.00 48 1016.9
20260507124519 59 29 5.0 12.0 0.00 0.00 0.00 48 1016.7
20260507123015 61 5 3.0 10.0 0.00 0.00 0.00 46 1016.6
20260507121513 61 351 2.0 11.0 0.00 0.00 0.00 45 1016.5
20260507120012 59 337 0.0 10.0 0.00 0.00 0.00 48 1016.5
20260507114511 61 42 1.0 12.0 0.00 0.00 0.00 47 1016.4
20260507113013 60 47 1.0 9.0 0.00 0.00 0.00 42 1016.4
20260507111507 61 340 1.0 6.0 0.00 0.00 0.00 44 1016.4
20260507110009 60 360 4.0 9.0 0.00 0.00 0.00 41 1016.5
20260507104503 59 338 4.0 10.0 0.00 0.00 0.00 43 1016.6
20260507103059 59 296 1.0 8.0 0.00 0.00 0.00 47 1016.5
20260507101558 59 35 2.0 9.0 0.00 0.00 0.00 46 1016.5
20260507100055 58 355 4.0 9.0 0.00 0.00 0.00 46 1016.4
20260507094550 58 15 3.0 8.0 0.00 0.00 0.00 48 1016.4
20260507093048 58 323 5.0 13.0 0.00 0.00 0.00 44 1016.4
20260507091545 58 319 3.0 8.0 0.00 0.00 0.00 45 1016.2
20260507090040 56 23 3.0 9.0 0.00 0.00 0.00 47 1016.1
20260507084538 56 32 2.0 5.0 0.00 0.00 0.00 50 1016.1
20260507083033 56 5 1.0 6.0 0.00 0.00 0.00 46 1016.0
20260507081528 56 70 2.0 6.0 0.00 0.00 0.00 48 1016.0
20260507080023 55 55 3.0 8.0 0.00 0.00 0.00 53 1015.9
20260507074520 55 323 3.0 6.0 0.00 0.00 0.00 51 1015.8
20260507073015 54 355 1.0 6.0 0.00 0.00 0.00 51 1015.7
20260507071512 54 325 2.0 5.0 0.00 0.00 0.00 53 1015.7
20260507070010 53 346 1.0 5.0 0.00 0.00 0.00 57 1015.6
20260507064502 51 32 2.0 5.0 0.00 0.00 0.00 62 1015.4
20260507063101 50 314 2.0 5.0 0.00 0.00 0.00 70 1015.4
20260507061554 49 28 2.0 5.0 0.00 0.00 0.00 73 1015.3
20260507060049 49 338 2.0 5.0 0.00 0.00 0.00 76 1015.3
20260507054545 48 19 3.0 5.0 0.00 0.00 0.00 78 1015.2
20260507053040 46 24 1.0 4.0 0.00 0.00 0.00 82 1015.1
20260507051536 44 153 0.0 2.0 0.00 0.00 0.00 88 1015.0
20260507050035 40 178 0.0 0.0 0.00 0.00 0.00 89 1015.0
20260507044527 37 178 0.0 0.0 0.00 0.00 0.00 91 1014.9
20260507043023 35 178 0.0 0.0 0.00 0.00 0.00 92 1014.8
20260507041518 33 178 0.0 0.0 0.00 0.00 0.00 90 1014.7
20260507040018 33 178 0.0 0.0 0.00 0.00 0.00 90 1014.7
20260507034528 33 177 0.0 0.0 0.00 0.00 0.00 89 1014.6
20260507033013 33 177 0.0 0.0 0.00 0.00 0.00 89 1014.5
20260507031512 33 177 0.0 0.0 0.00 0.00 0.00 89 1014.2
20260507030011 34 177 0.0 0.0 0.00 0.00 0.00 89 1014.3
20260507024507 34 177 0.0 0.0 0.00 0.00 0.00 89 1014.3
20260507023005 34 177 0.0 0.0 0.00 0.00 0.00 89 1014.1
20260507021502 35 177 0.0 0.0 0.00 0.00 0.00 89 1014.0
20260507020100 35 177 0.0 0.0 0.00 0.00 0.00 89 1013.9
20260507014603 35 177 0.0 0.0 0.00 0.00 0.00 88 1013.8
20260507013116 36 177 0.0 0.0 0.00 0.00 0.00 89 1013.7
20260507011558 36 177 0.0 0.0 0.00 0.00 0.00 88 1013.6
20260507004552 37 177 0.0 0.0 0.00 0.00 0.00 88 1013.5
20260507003049 37 176 0.0 0.0 0.00 0.00 0.00 87 1013.5
20260507001551 38 176 0.0 0.0 0.00 0.00 0.00 87 1013.5
20260507000045 38 176 0.0 0.0 0.00 0.00 0.00 88 1013.5
20260506234544 39 176 0.0 0.0 0.00 0.00 0.00 88 1013.5
20260506233056 39 176 0.0 0.0 0.00 0.00 0.00 87 1013.4
20260506231541 39 176 0.0 0.0 0.00 0.00 0.00 87 1013.5
20260506230037 39 176 0.0 0.0 0.00 0.00 0.00 86 1013.4
20260506224536 40 176 0.0 0.0 0.00 0.00 0.00 86 1013.3
20260506223034 39 176 0.0 0.0 0.00 0.00 0.00 85 1013.2
20260506221533 40 176 0.0 0.0 0.00 0.00 0.00 85 1013.2
20260506220030 40 176 0.0 0.0 0.00 0.00 0.00 85 1013.2
20260506214528 41 176 0.0 0.0 0.00 0.00 0.00 84 1013.1
20260506213028 41 176 0.0 0.0 0.00 0.00 0.00 84 1012.9
20260506211528 41 176 0.0 0.0 0.00 0.00 0.00 81 1013.0
20260506210025 42 176 0.0 0.0 0.00 0.00 0.00 80 1012.9
20260506204640 43 176 0.0 0.0 0.00 0.00 0.00 80 1012.9
20260506203038 44 176 0.0 0.0 0.00 0.00 0.00 80 1012.8
20260506201637 44 176 0.0 3.0 0.00 0.00 0.00 79 1012.7
20260506200045 44 177 0.0 3.0 0.00 0.00 0.00 78 1012.7
20260506194505 45 176 0.0 3.0 0.00 0.00 0.00 76 1012.6